User: anonymous   Login
Location: Waning Moon II Observatory
(30.3730°N, 89.7620°W)
Time: 00:02:19
(UTC-05:00)
Language:

Meteor 1-21 - Orbit

View from above orbital plane
View from above orbital plane
View from above satellite
View from above satellite

Ground track
Ground track

The orbit data is extracted from the following two-line orbital elements,

1 07714U 75023A   16241.79024956 -.00000137  00000-0 -87842-4 0  9998
2 07714  81.2105 116.3864 0032321   0.5952 359.5250 14.07941352444040
Epoch (UTC): 28 August 2016 18:57:57
Eccentricity: 0.0032321
inclination: 81.2105°
perigee height: 843 km
apogee height: 890 km
right ascension of ascending node: 116.3864°
argument of perigee: 0.5952°
revolutions per day: 14.07941352
mean anomaly at epoch: 359.5250°
orbit number at epoch: 44404

The dashed part of the orbit path shows where the satellite is in the earth's shadow,  

DLR